Date String (YYYY-MM-DD hh:mm:ss) UTC,Instrument flags,Ambient pressure (hPa),Sample flow (lpm),Bypass flow (lpm),Sample temperature (°C),Ambient temperature (°C),ASC tube jacket temperature (°C),LED temperature (°C),Box temperature (°C),Sample RH (%),Span deviation,Mass concentration (μg/m³),Mass concentration (μg/m³),Mass concentration (μg/m³)
DateTimeUTC,F1_M11,P_M11,Q1_M11,Q2_M11,T1_M11,T2_M11,T3_M11,T4_M11,T5_M11,U1_M11,ZSPAN_M11,X0_M11,X2_M11,X1_M11
2022-04-07 22:00:00,,0831.0,4.99,0.00,26.2,25.5,00.0,35.1,28.0,03.3,0000.0,0007.31,0001.68,0000.81
2022-04-07 22:01:00,,0830.9,5.00,0.00,26.2,25.5,00.0,35.1,28.0,03.4,0000.0,0007.33,0001.69,0000.81
2022-04-07 22:02:00,,0830.9,5.00,0.00,26.2,25.5,00.0,35.1,28.0,03.3,0000.0,0007.37,0001.73,0000.80
2022-04-07 22:03:00,,0830.9,5.00,0.00,26.2,25.5,00.0,35.1,28.0,03.5,0000.0,0007.62,0001.73,0000.81
2022-04-07 22:04:00,,0830.9,4.99,0.00,26.2,25.5,00.0,35.1,28.0,03.4,0000.0,0008.55,0001.70,0000.81
2022-04-07 22:05:00,,0830.9,5.01,0.00,26.2,25.5,00.0,35.1,28.0,03.5,0000.0,0008.48,0001.68,0000.82
2022-04-07 22:06:00,,0830.8,5.00,0.00,26.2,25.5,00.0,35.1,28.0,03.6,0000.0,0008.46,0001.67,0000.83
2022-04-07 22:07:00,,0830.9,4.99,0.00,26.2,25.5,00.0,35.1,28.0,03.3,0000.0,0006.29,0001.53,0000.84
2022-04-07 22:08:00,,0830.9,5.00,0.00,26.3,25.5,00.0,35.1,28.1,03.4,0000.0,0004.84,0001.41,0000.84
2022-04-07 22:09:00,,0830.8,5.00,0.00,26.3,25.5,00.0,35.1,28.1,03.4,0000.0,0004.68,0001.35,0000.84
2022-04-07 22:10:00,,0830.8,5.00,0.00,26.3,25.5,00.0,35.1,28.1,03.4,0000.0,0004.50,0001.28,0000.84
2022-04-07 22:11:00,,0831.0,5.00,0.00,26.3,25.5,00.0,35.1,28.0,03.3,0000.0,0004.48,0001.27,0000.84
2022-04-07 22:12:00,,0830.9,5.00,0.00,26.3,25.5,00.0,35.1,28.0,03.2,0000.0,0004.48,0001.26,0000.84
2022-04-07 22:13:00,,0830.8,5.00,0.00,26.3,25.5,00.0,35.1,28.0,03.4,0000.0,0004.47,0001.23,0000.85
2022-04-07 22:14:00,,0830.7,4.99,0.00,26.3,25.5,00.0,35.2,28.0,03.5,0000.0,0003.99,0001.23,0000.85
2022-04-07 22:15:00,,0830.7,5.00,0.00,26.3,25.5,00.0,35.2,28.0,03.5,0000.0,0002.16,0001.24,0000.85
2022-04-07 22:16:00,,0830.7,5.00,0.00,26.3,25.5,00.0,35.2,28.1,03.5,0000.0,0002.17,0001.25,0000.87
2022-04-07 22:17:00,,0830.7,5.00,0.00,26.3,25.5,00.0,35.2,28.0,03.5,0000.0,0002.32,0001.29,0000.86
2022-04-07 22:18:00,,0830.8,5.01,0.00,26.3,25.5,00.0,35.2,28.0,03.4,0000.0,0002.46,0001.34,0000.86
2022-04-07 22:19:00,,0830.9,5.00,0.00,26.2,25.5,00.0,35.2,28.0,03.4,0000.0,0002.62,0001.39,0000.87
2022-04-07 22:20:00,,0830.7,5.00,0.00,26.2,25.5,00.0,35.2,28.0,03.5,0000.0,0002.95,0001.45,0000.88
2022-04-07 22:21:00,,0830.7,5.00,0.00,26.3,25.5,00.0,35.2,28.0,03.5,0000.0,0002.99,0001.46,0000.88
2022-04-07 22:22:00,,0830.6,5.01,0.00,26.3,25.5,00.0,35.2,28.0,03.5,0000.0,0003.25,0001.53,0000.89
2022-04-07 22:23:00,,0830.7,5.00,0.00,26.3,25.5,00.0,35.2,28.0,03.4,0000.0,0003.70,0001.55,0000.89
2022-04-07 22:24:00,,0830.7,5.00,0.00,26.2,25.5,00.0,35.2,28.0,03.3,0000.0,0004.42,0001.58,0000.89
2022-04-07 22:25:00,,0830.6,5.00,0.00,26.2,25.5,00.0,35.2,28.0,03.4,0000.0,0004.41,0001.58,0000.89
2022-04-07 22:26:00,,0830.7,5.01,0.00,26.2,25.5,00.0,35.2,28.0,03.4,0000.0,0004.40,0001.58,0000.89
2022-04-07 22:27:00,,0830.7,5.00,0.00,26.3,25.5,00.0,35.2,28.0,03.4,0000.0,0004.42,0001.58,0000.88
2022-04-07 22:28:00,,0830.7,5.00,0.00,26.3,25.5,00.0,35.2,28.0,03.3,0000.0,0004.33,0001.56,0000.89
2022-04-07 22:29:00,,0830.7,5.00,0.00,26.3,25.5,00.0,35.2,28.0,03.1,0000.0,0004.25,0001.54,0000.90
2022-04-07 22:30:00,,0830.7,5.00,0.00,26.3,25.5,00.0,35.2,28.1,03.2,0000.0,0004.15,0001.53,0000.90
2022-04-07 22:31:00,,0830.7,4.99,0.00,26.3,25.6,00.0,35.2,28.1,03.4,0000.0,0003.95,0001.52,0000.90
2022-04-07 22:32:00,,0830.7,5.00,0.00,26.3,25.6,00.0,35.2,28.1,03.5,0000.0,0003.95,0001.53,0000.91
2022-04-07 22:33:00,,0830.6,5.00,0.00,26.3,25.6,00.0,35.2,28.1,03.6,0000.0,0005.11,0001.52,0000.90
2022-04-07 22:34:00,,0830.6,5.00,0.00,26.3,25.6,00.0,35.2,28.1,03.5,0000.0,0005.55,0001.57,0000.90
2022-04-07 22:35:00,,0830.7,4.99,0.00,26.3,25.6,00.0,35.2,28.1,03.4,0000.0,0004.70,0001.54,0000.90
2022-04-07 22:36:00,,0830.6,4.99,0.00,26.3,25.6,00.0,35.2,28.1,03.5,0000.0,0005.85,0001.52,0000.91
2022-04-07 22:37:00,,0830.6,5.01,0.00,26.3,25.6,00.0,35.2,28.1,03.5,0000.0,0006.44,0001.58,0000.92
2022-04-07 22:38:00,,0830.7,5.00,0.00,26.3,25.6,00.0,35.2,28.1,03.6,0000.0,0006.76,0001.62,0000.91
2022-04-07 22:39:00,,0830.8,4.99,0.00,26.3,25.6,00.0,35.2,28.1,03.6,0000.0,0007.01,0001.67,0000.91
2022-04-07 22:40:00,,0830.9,5.00,0.00,26.3,25.6,00.0,35.2,28.1,03.5,0000.0,0007.13,0001.69,0000.90
2022-04-07 22:41:00,,0830.8,4.99,0.00,26.3,25.6,00.0,35.2,28.1,03.5,0000.0,0007.30,0001.69,0000.89
2022-04-07 22:42:00,,0830.7,5.00,0.00,26.3,25.6,00.0,35.2,28.1,03.4,0000.0,0007.34,0001.67,0000.88
2022-04-07 22:43:00,,0830.8,5.01,0.00,26.3,25.6,00.0,35.2,28.1,03.4,0000.0,0007.55,0001.67,0000.88
2022-04-07 22:44:00,,0830.7,5.00,0.00,26.3,25.6,00.0,35.2,28.1,03.4,0000.0,0006.94,0001.65,0000.89
2022-04-07 22:45:00,,0830.8,5.00,0.00,26.3,25.6,00.0,35.2,28.1,03.4,0000.0,0005.75,0001.58,0000.88
2022-04-07 22:46:00,,0830.7,5.01,0.00,26.3,25.6,00.0,35.2,28.1,03.2,0000.0,0005.61,0001.56,0000.87
2022-04-07 22:47:00,,0830.7,5.00,0.00,26.3,25.6,00.0,35.2,28.1,03.4,0000.0,0004.86,0001.55,0000.86
2022-04-07 22:48:00,,0830.6,5.00,0.00,26.4,25.6,00.0,35.2,28.1,03.4,0000.0,0003.94,0001.53,0000.85
2022-04-07 22:49:00,,0830.5,4.99,0.00,26.4,25.6,00.0,35.3,28.1,03.4,0000.0,0004.05,0001.51,0000.85
2022-04-07 22:50:00,,0830.5,5.00,0.00,26.4,25.6,00.0,35.3,28.1,03.4,0000.0,0004.17,0001.53,0000.85
2022-04-07 22:51:00,,0830.7,5.00,0.00,26.3,25.6,00.0,35.3,28.1,03.3,0000.0,0004.02,0001.47,0000.85
2022-04-07 22:52:00,,0830.7,5.00,0.00,26.3,25.6,00.0,35.3,28.0,03.3,0000.0,0003.88,0001.44,0000.86
2022-04-07 22:53:00,,0830.7,5.00,0.00,26.3,25.6,00.0,35.3,28.0,03.4,0000.0,0004.21,0001.42,0000.86
2022-04-07 22:54:00,,0830.5,5.01,0.00,26.4,25.7,00.0,35.3,28.1,03.5,0000.0,0004.49,0001.39,0000.87
2022-04-07 22:55:00,,0830.6,5.01,0.00,26.4,25.7,00.0,35.3,28.1,03.5,0000.0,0004.57,0001.44,0000.87
2022-04-07 22:56:00,,0830.6,5.00,0.00,26.4,25.7,00.0,35.3,28.1,03.4,0000.0,0004.79,0001.47,0000.87
2022-04-07 22:57:00,,0830.6,4.99,0.00,26.4,25.7,00.0,35.3,28.1,03.5,0000.0,0004.83,0001.48,0000.89
2022-04-07 22:58:00,,0830.5,4.99,0.00,26.4,25.6,00.0,35.3,28.1,03.6,0000.0,0005.22,0001.61,0000.90
2022-04-07 22:59:00,,0830.7,5.00,0.00,26.3,25.6,00.0,35.3,28.1,03.4,0000.0,0005.21,0001.63,0000.89
